Volver al catálogo

YUBELEINY 2

ActivoRadioaficionadoPO
NORAD 38735·PAYLOAD·🇷🇺 Russia

Lanzado Jul 28, 2012 desde Plesetsk Cosmodrome

Loading…

Próximos Pases (próximas 24 horas)

TLE

ActualizadoSource: Space-Track

Época: Sep 14, 2026, 13:31 UTC

1 38735U 12041C   26257.56328528  .00000021  00000-0  80971-4 0  9997
2 38735  82.4802  18.9406 0016937 230.4605 129.4978 12.42652110640943

Sigue YUBELEINY 2 en tiempo real con AllMySat

Download on the App Store